Regional Weather Roundup
Issued by NWS Portland, ME

Home | Current Version | Previous Version | Text Only | Print | Product List | Glossary On
Versions: 1 2 3 4 5 6 7 8 9 10 11 12 13 14 15 16 17 18 19 20 21 22 23 24 25 26 27 28 29 30 31 32 33 34 35 36 37 38 39 40 41 42 43 44 45 46 47 48 49 50
000
ASUS41 KGYX 020010
RWRGYX
WEATHER ROUNDUP FOR MAINE AND NEW HAMPSHIRE
NATIONAL WEATHER SERVICE GRAY ME
800 PM EDT TUE SEP 01 2015

MEZ002-005-006-010-012-015-018-020-021-024-026-027-029-020100-
MAINE

CITY           SKY/WX    TMP DP  RH WIND       PRES   REMARKS
PORTLAND       CLEAR     66  60  81 S5        30.03R
6HR MIN TEMP:  66; 6HR MAX TEMP:  78;

SANFORD        CLEAR     63  55  77 S3        30.04R
BAR HARBOR     PTCLDY    64  61  88 S5        30.02R
WISCASSET      CLEAR     66  58  75 CALM      30.04R
6HR MIN TEMP:  66; 6HR MAX TEMP:  80;

ROCKLAND       FAIR      64  55  72 SW5       30.01S
FRYEBURG       CLEAR     66  65  96 CALM      30.02R
6HR MIN TEMP:  66; 6HR MAX TEMP:  84;

LEWISTONAUBURN CLEAR     66 N/A N/A S6        30.03R
AUGUSTA        PTCLDY    67  57  70 VRB6      30.02S
6HR MIN TEMP:  67; 6HR MAX TEMP:  78;

WATERVILLE     PTCLDY    66  59  77 S5        29.98S
BANGOR         MOCLDY    69  57  65 S6        30.01R
6HR MIN TEMP:  65; 6HR MAX TEMP:  78;

GREENVILLE       N/A     64  56  75 CALM      30.02R
6HR MIN TEMP:  63; 6HR MAX TEMP:  74;

MILLINOCKET    PTCLDY    64  58  80 CALM      30.01R
6HR MIN TEMP:  64; 6HR MAX TEMP:  76;

HOULTON        PTCLDY    58  55  90 S3        29.98R
6HR MIN TEMP:  57; 6HR MAX TEMP:  72;

PRESQUE ISLE   PTCLDY    61  54  77 CALM      29.97S
6HR MIN TEMP:  61; 6HR MAX TEMP:  72;

FRENCHVILLE    PTCLDY    62  54  74 SE6       29.96S
6HR MIN TEMP:  62; 6HR MAX TEMP:  70;

CARIBOU        PTCLDY    62  53  72 S5        29.97R
6HR MIN TEMP:  62; 6HR MAX TEMP:  71;

$$

NHZ002-005-008-009-011-012-014-020100-
NEW HAMPSHIRE

CITY           SKY/WX    TMP DP  RH WIND       PRES   REMARKS
PORTSMOUTH     CLEAR     66  61  83 SE5       30.02R
ROCHESTER      CLEAR     66  59  78 CALM      30.03R
6HR MIN TEMP:  66; 6HR MAX TEMP:  82;

NASHUA         CLEAR     76  63  64 SE6       30.03R
MANCHESTER     CLEAR     75  59  57 SE6       30.01R
6HR MIN TEMP:  75; 6HR MAX TEMP:  86;

CONCORD        CLEAR     70  63  78 SE5       30.03R
6HR MIN TEMP:  70; 6HR MAX TEMP:  85;

LACONIA        CLEAR     70  61  73 CALM      30.02R
PLYMOUTH       FAIR      65  62  89 CALM      30.03R
BERLIN         CLEAR     63  59  87 CALM      30.05R
6HR MIN TEMP:  63; 6HR MAX TEMP:  82;

WHITEFIELD     CLEAR     65  59  81 CALM      30.05S
6HR MIN TEMP:  65; 6HR MAX TEMP:  80;

JAFFREY        CLEAR     68  62  81 CALM      30.06S
6HR MIN TEMP:  68; 6HR MAX TEMP:  83;

KEENE          CLEAR     68  59  73 CALM      30.04R
LEBANON        CLEAR     68  63  84 CALM      30.02R
6HR MIN TEMP:  67; 6HR MAX TEMP:  84;

MT WASHINGTON  PTCLDY    64   9  11 W10         N/A
6HR MIN TEMP:  59; 6HR MAX TEMP:  65;

$$

VTZ005-007-008-020100-
VERMONT

CITY           SKY/WX    TMP DP  RH WIND       PRES   REMARKS
ST JOHNSBURY     N/A     69  63  81 MISG      30.02R
MONTPELIER     CLEAR     66  60  81 CALM      30.08R
BURLINGTON     CLEAR     74  58  57 SE3       29.99S
$$

MAZ007-012-024-CTZ003-RIZ002-NYZ038-NYZ072-020100-
SOUTHERN NEW ENGLAND AND NY

CITY           SKY/WX    TMP DP  RH WIND       PRES   REMARKS
BOSTON         PTCLDY    70  63  78 SE7       30.03R
WORCESTER      CLEAR     72  56  57 W6        30.06R
NANTUCKET      CLEAR     66  62  87 E6        30.04R
PROVIDENCE     PTCLDY    74  62  66 S9        30.04R
HARTFORD       CLEAR     74  66  76 NW5       30.01R
ALBANY         PTCLDY    77  63  61 CALM      30.02R
NEW YORK CITY  CLEAR     78  64  61 S9        30.02R
$$

ANZ081-ANZ082-ANZ150-NHZ014-MEZ023>029-020100-
COASTAL MARINE OBSERVATIONS

STATION/POSITION TIME  TEMP    WIND        PRES    WAVE
                       AIR SEA DIR/SP/G            HT/PER
                 (UTC) (F)     (DEG/KT/KT) (MB)    (FT/S)
MOUNT DESERT ROC 0000   60     230/ 14/ 15 1016.9R
MATINICUS ROCK   0000          240/ 10/ 11 1016.6S
ISLE OF SHOALS   0000   69     180/ 12/ 12 1016.6R
JEFFREYS LEDGE   2303      67                N/A     2/ 7
CASHES LEDGE BUO 2350   67                 1017.0R   2/ 7
GEORGES BANK BUO 2250   66 68  350/ 10/ 12 1015.9    4/ 7
$$

.............KEY..............
   WCI - WIND CHILL
   TC  - TEMPERATURE IN CELSIUS
   VSB - VISIBILITY IN MILES
   HX  - HEAT INDEX
   FAIR- INDICATES FEW OR NO CLOUDS BELOW 12,000 FT, WITH NO
         SIGNIFICANT WEATHER AND/OR OBSTRUCTIONS TO VISIBILITY.




USA.gov is the U.S. government's official web portal to all federal, state and local government web resources and services.